"Time","Temp","Dewpoint","Humidity","Pressure","Direction","Speed","Gust","Precip","PrecipRate"
"00:04:58","61.5","54.9","79","30.01","132","0","0","0.00","0.00"
"00:09:56","61.2","54.7","79.1","30.01","132","0","0","0.00","0.00"
"00:14:56","61","54.8","80","30.02","132","0","0","0.00","0.00"
"00:19:59","60.8","54.7","80.4","30.02","132","0","0","0.00","0.00"
"00:24:58","60.7","54.8","81","30.02","132","0","0","0.00","0.00"
"00:29:57","60.5","55","81.9","30.02","132","0","0","0.00","0.00"
"00:34:56","60.3","54.9","82.2","30.02","132","0","0","0.00","0.00"
"00:39:59","60","54.7","82.8","30.02","132","0","0","0.00","0.00"
"00:44:58","59.8","54.8","83.5","30.02","132","0","0","0.00","0.00"
"00:49:57","59.6","54.8","84","30.02","132","0","0","0.00","0.00"
"00:54:56","59.5","54.9","84.7","30.02","132","0","0","0.00","0.00"
"00:59:59","59.4","54.9","85","30.02","132","0","1.2","0.00","0.00"
"01:04:57","59.3","55.1","85.9","30.02","132","0","0","0.00","0.00"
"01:09:56","59.3","55.1","86","30.02","132","0","0","0.00","0.00"
"01:14:56","59.2","55","86","30.02","132","0","0","0.00","0.00"
"01:19:59","59","55","86.6","30.02","132","0.3","1.2","0.00","0.00"
"01:24:58","58.9","55","87","30.02","132","1","2.3","0.00","0.00"
"01:29:57","58.9","55","87","30.02","132","0","1.2","0.00","0.00"
"01:34:59","58.8","54.9","87","30.02","132","0","0","0.00","0.00"
"01:39:59","58.6","54.7","87","30.02","132","0","0","0.00","0.00"
"01:44:58","58.4","54.8","87.7","30.02","132","0","0","0.00","0.00"
"01:49:57","58.2","54.7","88","30.02","132","0","0","0.00","0.00"
"01:54:56","57.9","54.5","88.3","30.02","132","0.1","1.2","0.00","0.00"
"01:59:59","57.8","54.6","89.1","30.02","132","0.2","1.2","0.00","0.00"
"02:04:57","57.8","54.9","90","30.02","132","0","0","0.00","0.00"
"02:09:57","57.7","54.8","90","30.02","132","0","0","0.00","0.00"
"02:14:56","57.5","54.4","89.5","30.02","132","0","0","0.00","0.00"
"02:19:59","57.3","54.4","90","30.02","132","0.1","1.2","0.00","0.00"
"02:24:58","57.3","54.7","91","30.02","132","0.3","1.2","0.00","0.00"
"02:29:57","57.2","54.6","91","30.02","132","0","0","0.00","0.00"
"02:34:56","57.1","54.5","91","30.02","132","0","0","0.00","0.00"
"02:39:55","56.9","54.3","91","30.02","132","0","0","0.00","0.00"
"02:44:58","56.7","54.1","91","30.02","132","0","0","0.00","0.00"
"02:49:57","56.6","54.1","91.3","30.02","132","0","0","0.00","0.00"
"02:54:57","56.5","54.2","92","30.02","132","0","0","0.00","0.00"
"02:59:55","56.3","54","92","30.02","132","0","0","0.00","0.00"
"03:04:59","56.3","54","92.1","30.02","132","0","0","0.00","0.00"
"03:09:59","56.2","53.9","92.1","30.02","132","0","0","0.00","0.00"
"03:14:59","56.1","53.8","92","30.02","132","0","0","0.00","0.00"
"03:19:58","55.9","53.6","92","30.02","132","0","0","0.00","0.00"
"03:24:57","55.8","53.5","92","30.02","132","0","0","0.00","0.00"
"03:29:55","55.7","53.4","92.2","30.02","132","0","0","0.00","0.00"
"03:34:58","55.6","53.4","92.3","30.02","132","0","0","0.00","0.00"
"03:39:58","55.5","53.5","93","30.02","132","0","0","0.00","0.00"
"03:44:57","55.5","53.5","93","30.02","132","0","0","0.00","0.00"
"03:49:55","55.4","53.5","93","30.02","132","0","0","0.00","0.00"
"03:54:58","55.4","53.7","94","30.02","132","0","0","0.00","0.00"
"03:59:57","55.4","53.7","94","30.02","132","0","0","0.00","0.00"
"04:04:59","55.3","53.6","94","30.02","132","0","0","0.00","0.00"
"04:09:59","55.2","53.5","94","30.02","132","0","0","0.00","0.00"
"04:14:58","55.1","53.4","94","30.02","132","0","0","0.00","0.00"
"04:19:57","55","53.3","94","30.02","132","0.1","1.2","0.00","0.00"
"04:24:56","54.9","53.2","94","30.02","132","0","0","0.00","0.00"
"04:29:56","54.8","53.1","94","30.02","132","0","0","0.00","0.00"
"04:34:59","54.8","53.1","94","30.01","132","0","0","0.00","0.00"
"04:39:58","54.8","53.1","94","30.01","132","0","0","0.00","0.00"
"04:44:57","54.7","53","94","30.02","132","0","1","0.00","0.00"
"04:49:56","54.6","52.9","94","30.02","132","0.1","1.2","0.00","0.00"
"04:54:59","54.5","52.9","94.4","30.02","132","0","0","0.00","0.00"
"04:59:58","54.4","53","95","30.02","132","0","0","0.00","0.00"
"05:04:57","54.3","52.9","94.8","30.02","132","0","0","0.00","0.00"
"05:09:56","54.2","52.7","94.6","30.02","132","0","0","0.00","0.00"
"05:14:56","54.2","52.8","95","30.02","132","0","0","0.00","0.00"
"05:19:59","54.1","52.7","95","30.02","132","0","0","0.00","0.00"
"05:24:58","54","52.6","95","30.02","132","0","0","0.00","0.00"
"05:29:57","53.8","52.4","95","30.02","132","0","0","0.00","0.00"
"05:34:56","53.7","52.3","95","30.02","132","0","0","0.00","0.00"
"05:39:56","53.6","52.2","95","30.02","132","0","0","0.00","0.00"
"05:44:59","53.6","52.2","95","30.03","132","0","1.2","0.00","0.00"
"05:49:59","53.6","52.2","95","30.03","132","0","0","0.00","0.00"
"05:54:58","53.6","52.2","95","30.03","132","0","1","0.00","0.00"
"05:59:57","53.6","52.2","95","30.04","132","0","1.2","0.00","0.00"
"06:04:56","53.5","52.1","95","30.04","132","0","0","0.00","0.00"
"06:09:56","53.5","52.1","95","30.04","132","0","0","0.00","0.00"
"06:14:56","53.4","52","95","30.04","132","0","0","0.00","0.00"
"06:19:59","53.5","52.2","95.4","30.04","132","0","0","0.00","0.00"
"06:24:58","53.5","52.4","96","30.04","132","0","0","0.00","0.00"
"06:29:56","53.6","52.5","96","30.05","132","0","0","0.00","0.00"
"06:34:59","53.7","52.6","96","30.05","132","0","0","0.00","0.00"
"06:39:58","53.7","52.6","96","30.05","132","0","0","0.00","0.00"
"06:44:57","53.8","52.7","96","30.05","132","0","0","0.00","0.00"
"06:49:56","54","52.9","96","30.05","132","0","0","0.00","0.00"
"06:54:58","54.1","53","96","30.05","132","0","0","0.00","0.00"
"06:59:57","54.3","53.3","96.5","30.05","132","0","0","0.00","0.00"
"07:04:59","54.6","53.8","97","30.05","132","0","0","0.00","0.00"
"07:09:59","54.9","54.1","97","30.05","132","0","0","0.00","0.00"
"07:14:59","55.2","54.4","97","30.05","132","0","0","0.00","0.00"
"07:19:58","55.8","55","97","30.05","132","0","0","0.00","0.00"
"07:24:56","56.3","55.6","97.3","30.05","115","0","0","0.00","0.00"
"07:29:59","56.9","56.1","97.2","30.05","115","0","0","0.00","0.00"
"07:34:58","57.5","56.7","97","30.05","115","0","0","0.00","0.00"
"07:39:57","58.2","57.4","97","30.05","115","0","0","0.00","0.00"
"07:44:56","58.7","57.6","96","30.06","115","0","0","0.00","0.00"
"07:49:58","59.2","57.8","94.9","30.06","115","0","1.2","0.00","0.00"
"07:54:57","59.7","57.9","93.7","30.06","115","0","1.2","0.00","0.00"
"07:59:56","60.3","58.1","92.5","30.07","115","0","1.2","0.00","0.00"
"08:04:59","60.8","58.4","91.7","30.07","115","0.2","1.2","0.00","0.00"
"08:09:58","61.4","58.2","89.2","30.07","115","0.4","2","0.00","0.00"
"08:14:57","62.4","58.4","86.8","30.07","115","0.7","2.3","0.00","0.00"
"08:19:55","63.4","58.6","84.2","30.07","115","0.7","2.3","0.00","0.00"
"08:24:58","64.2","58.3","81.3","30.07","115","0.2","1.2","0.00","0.00"
"08:29:56","64.8","57.8","78.3","30.07","115","0.9","3.5","0.00","0.00"
"08:34:59","65.4","58.3","77.8","30.07","116","1","2.3","0.00","0.00"
"08:39:57","66","57.2","73.3","30.07","117","1.2","3.5","0.00","0.00"
"08:44:56","66.7","57.4","72.1","30.07","118","1.2","3.5","0.00","0.00"
"08:49:59","67.4","56.8","68.9","30.07","164","1.7","4","0.00","0.00"
"08:54:57","68.1","56.5","66.7","30.07","164","2.1","5","0.00","0.00"
"08:59:59","68.7","54.9","61.4","30.07","164","2.7","5","0.00","0.00"
"09:04:57","69.2","54.5","59.6","30.06","175","2.7","6","0.00","0.00"
"09:09:59","69.6","54.3","58.4","30.06","180","2.7","6","0.00","0.00"
"09:14:59","69.9","53.3","55.6","30.06","186","3.5","10.4","0.00","0.00"
"09:19:57","70.4","54.7","57.7","30.06","191","2.4","6","0.00","0.00"
"09:24:59","70.9","54.5","56.2","30.06","194","2.2","6","0.00","0.00"
"09:29:57","71.4","53.6","53.4","30.06","191","3.3","6","0.00","0.00"
"09:34:59","71.8","53.5","52.6","30.06","179","3.2","7","0.00","0.00"
"09:39:58","72","52.7","50.9","30.06","196","4","7","0.00","0.00"
"09:44:57","72.2","52.6","50.2","30.06","166","2.7","6.9","0.00","0.00"
"09:49:59","72.4","50.4","45.8","30.06","172","2.9","6","0.00","0.00"
"09:54:57","72.6","50.7","46.3","30.06","183","3.4","9.2","0.00","0.00"
"09:59:59","72.8","51.3","47","30.06","188","3.4","7","0.00","0.00"
"10:04:57","73","50.8","45.7","30.06","177","3.7","10.4","0.00","0.00"
"10:09:56","73.2","50.4","44.7","30.06","170","4.2","9.2","0.00","0.00"
"10:14:56","73.4","50.4","44.5","30.06","163","3.5","9.2","0.00","0.00"
"10:19:58","73.6","50.5","44.3","30.06","170","3.6","7","0.00","0.00"
"10:24:56","73.8","50.1","43.5","30.06","170","4.6","9.2","0.00","0.00"
"10:29:58","73.9","50.6","44","30.07","193","4.1","12","0.00","0.00"
"10:34:56","74","51.3","44.9","30.07","195","3.7","10","0.00","0.00"
"10:39:59","74.2","50.9","44.1","30.07","200","4.6","11","0.00","0.00"
"10:44:57","74.4","51.9","45.4","30.07","170","2.9","9.2","0.00","0.00"
"10:49:59","74.8","52.6","46","30.07","161","2.8","6.9","0.00","0.00"
"10:54:57","75.2","53.5","46.9","30.07","194","2.6","7","0.00","0.00"
"10:59:59","75.5","52.8","45.3","30.08","153","3.3","10.4","0.00","0.00"
"11:04:57","75.6","53.6","46.4","30.08","159","2.8","5","0.00","0.00"
"11:09:56","75.9","53.7","46.2","30.08","184","3.1","10.4","0.00","0.00"
"11:14:58","76","52.3","43.8","30.08","147","4.2","9.2","0.00","0.00"
"11:19:57","76.1","53.8","45.9","30.08","163","2.5","6","0.00","0.00"
"11:24:59","76.4","53.4","44.9","30.08","158","3.6","7","0.00","0.00"
"11:29:57","76.6","53.7","45","30.08","147","4.2","8.1","0.00","0.00"
"11:34:59","76.7","52.8","43.6","30.08","165","4.3","9.2","0.00","0.00"
"11:39:58","76.6","51.3","41.2","30.08","172","4.5","10","0.00","0.00"
"11:44:56","76.6","52.8","43.6","30.08","162","4.6","11.5","0.00","0.00"
"11:49:59","76.7","53.4","44.5","30.07","166","3.3","9.2","0.00","0.00"
"11:54:57","77.1","53.9","44.7","30.07","167","4.5","13","0.00","0.00"
"11:59:56","77","53","43.5","30.07","189","4.6","9.2","0.00","0.00"
"12:04:59","77","53.6","44.3","30.07","188","3","8.1","0.00","0.00"
"12:09:57","77.4","54","44.5","30.07","187","4","10.4","0.00","0.00"
"12:14:56","77.7","53","42.3","30.07","184","3.3","7","0.00","0.00"
"12:19:58","78.1","54.7","44.4","30.07","202","3.7","10","0.00","0.00"
"12:24:56","78.1","52.8","41.5","30.07","197","4.8","10.4","0.00","0.00"
"12:29:58","78","53.3","42.6","30.07","188","4.1","10.4","0.00","0.00"
"12:34:56","77.8","52.6","41.6","30.07","174","3","7","0.00","0.00"
"12:39:59","78","55.1","45.4","30.07","166","2.7","6","0.00","0.00"
"12:44:58","78.3","54","43.2","30.07","191","3.8","11.5","0.00","0.00"
"12:49:56","78.2","51.6","39.5","30.07","149","5","14","0.00","0.00"
"12:54:58","78.1","53.5","42.6","30.07","178","4","10.4","0.00","0.00"
"12:59:59","78.1","53.8","43","30.07","192","5.6","14","0.00","0.00"
"13:04:53","78","52.8","41.7","30.06","120","4.8","12","0.00","0.00"
"13:09:56","78.1","54.1","43.6","30.06","173","3.9","10.4","0.00","0.00"
"13:14:59","78.3","53.9","42.9","30.06","197","4.5","10.4","0.00","0.00"
"13:19:59","78.7","54.7","43.6","30.06","165","3.4","9.2","0.00","0.00"
"13:24:58","79","54.4","42.7","30.06","207","3.6","7","0.00","0.00"
"13:29:58","79.2","54.6","42.8","30.06","173","4","10.4","0.00","0.00"
"13:34:57","79.3","55.3","43.8","30.06","202","4.1","10.4","0.00","0.00"
"13:39:58","79.3","54.8","42.9","30.06","184","5","12","0.00","0.00"
"13:44:57","79.4","55.1","43.2","30.06","164","3.4","10.4","0.00","0.00"
"13:49:57","79.5","53.8","41.2","30.05","173","4.3","12","0.00","0.00"
"13:54:56","79.4","55.1","43.3","30.05","178","4.3","10.4","0.00","0.00"
"13:59:59","79.5","55","43.1","30.05","165","3.2","10.4","0.00","0.00"
"14:04:59","79.8","56.1","44.3","30.05","132","2.5","7","0.00","0.00"
"14:09:59","80.2","57.4","45.8","30.05","182","3.1","7","0.00","0.00"
"14:14:59","80.4","55.7","42.8","30.05","157","3","7","0.00","0.00"
"14:19:59","80.2","55.9","43.5","30.04","161","3.6","9.2","0.00","0.00"
"14:24:58","80.2","55.4","42.6","30.04","191","3.2","7","0.00","0.00"
"14:29:58","80.4","56.3","43.7","30.04","153","3","10.4","0.00","0.00"
"14:34:57","80.3","56.4","44","30.03","160","3.5","9.2","0.00","0.00"
"14:39:57","80.4","56.7","44.3","30.03","178","3.8","9.2","0.00","0.00"
"14:44:56","80.6","57.3","45","30.03","174","4.1","11.5","0.00","0.00"
"14:49:56","80.7","56.8","44","30.03","188","4.9","11.5","0.00","0.00"
"14:54:59","80.6","56.1","43.1","30.03","167","3.8","10.4","0.00","0.00"
"14:59:59","80.6","57.6","45.5","30.04","162","3.2","10.4","0.00","0.00"
"15:04:58","80.4","56","43.3","30.04","176","5.2","11.5","0.00","0.00"
"15:09:58","80.3","56.7","44.5","30.04","170","3.8","7","0.00","0.00"
"15:14:59","80.5","56.4","43.6","30.04","157","3.2","7","0.00","0.00"
"15:19:58","80.7","57.5","45.2","30.03","148","4.1","12","0.00","0.00"
"15:24:58","80.6","56.6","43.8","30.03","156","4.7","11.5","0.00","0.00"
"15:29:57","80.5","56.3","43.4","30.03","168","3.9","9.2","0.00","0.00"
"15:34:57","80.6","56.4","43.5","30.03","162","4.2","10.4","0.00","0.00"
"15:39:57","80.6","56.4","43.5","30.03","174","3.6","9","0.00","0.00"
"15:44:56","80.7","57.2","44.7","30.03","164","4.5","12","0.00","0.00"
"15:49:56","80.8","56.8","44","30.03","140","3.8","10.4","0.00","0.00"
"15:54:59","81","57.8","45.3","30.03","187","3.9","10.4","0.00","0.00"
"15:59:59","81.4","57.5","44.3","30.03","159","4","11.5","0.00","0.00"
